Date,TemperatureHighF,TemperatureAvgF,TemperatureLowF,DewpointHighF,DewpointAvgF,DewpointLowF,HumidityHigh,HumidityAvg,HumidityLow,PressureMaxIn,PressureMinIn,WindSpeedMaxMPH,WindSpeedAvgMPH,GustSpeedMaxMPH,PrecipitationSumIn
2013-1-1,41.9,36.2,25.2,31.4,24.8,10.9,77,63,51,29.93,29.75,11,3,19,0.00
2013-1-2,30.7,25.4,19.5,18.8,14.7,11.3,72,64,54,30.09,29.92,11,2,15,0.00
2013-1-3,32.9,23.3,14.1,20.4,10.1,1.5,80,57,42,30.14,29.99,10,2,15,0.00
2013-1-4,40.0,33.4,25.7,28.5,24.4,19.2,83,69,59,30.00,29.84,18,4,25,0.00
2013-1-5,46.7,36.0,28.6,28.5,25.2,21.9,81,65,45,30.23,29.89,15,3,21,0.00
2013-1-6,42.9,36.1,29.2,36.8,31.8,24.1,94,84,71,30.19,29.92,15,2,18,0.02
2013-1-7,46.4,35.2,27.1,33.6,27.5,22.6,93,75,50,30.36,29.96,9,1,12,0.00
2013-1-8,48.5,40.4,26.8,38.2,34.6,22.6,92,80,59,30.39,30.28,23,3,23,0.00
2013-1-9,45.9,38.8,29.5,41.7,35.8,28.0,97,89,78,30.35,30.05,14,2,21,0.00
2013-1-10,50.1,42.0,32.8,39.2,29.2,26.1,78,61,42,30.50,30.09,12,3,24,0.00
2013-1-11,45.2,37.2,28.9,44.1,33.3,25.1,96,86,75,30.49,30.12,8,1,10,0.17
2013-1-12,48.8,46.1,43.6,48.0,45.2,42.8,97,96,96,30.13,30.04,5,1,10,0.16
2013-1-13,47.5,45.3,43.4,46.7,44.4,42.6,100,97,95,30.13,29.98,4,0,6,0.00
2013-1-14,57.4,49.9,39.0,56.5,45.2,31.7,99,85,56,30.22,29.89,13,2,15,0.02
2013-1-15,41.8,38.4,35.8,34.6,32.8,29.6,94,81,70,30.28,30.16,6,2,14,0.17
2013-1-16,38.1,35.6,33.9,36.0,34.0,29.9,97,94,72,30.19,29.74,7,1,14,0.31
2013-1-17,46.3,39.1,34.0,35.6,32.1,21.0,96,77,57,30.04,29.83,11,2,17,0.25
2013-1-18,34.0,28.4,22.2,22.3,11.9,4.6,71,50,32,30.45,29.96,14,3,21,0.00
2013-1-19,47.6,41.3,30.8,38.5,32.5,18.5,84,71,59,30.38,29.90,18,6,26,0.01
2013-1-20,54.2,44.8,31.7,39.2,32.5,17.0,84,63,36,29.93,29.60,19,5,28,0.00
2013-1-21,31.8,29.3,24.0,29.4,19.7,12.9,92,68,47,30.07,29.75,9,1,12,0.00
2013-1-22,28.9,23.2,15.8,26.4,9.9,1.1,92,59,34,30.09,29.73,18,3,21,0.00
2013-1-23,22.5,15.7,11.0,3.0,0.4,-1.4,63,51,36,30.17,30.08,17,2,18,0.00
2013-1-24,26.0,16.0,7.7,3.4,-0.8,-3.7,65,49,31,30.27,30.09,15,3,22,0.00
2013-1-25,27.5,20.7,13.9,17.7,6.3,1.4,85,54,34,30.32,30.00,14,2,15,0.00
2013-1-26,30.6,21.1,12.8,16.8,10.9,5.7,88,66,47,30.27,29.97,14,2,17,0.00
2013-1-27,36.8,24.2,12.8,12.7,7.9,5.0,82,52,28,30.45,30.26,9,2,18,0.00
2013-1-28,36.7,29.9,20.6,35.4,22.2,5.7,100,74,47,30.44,29.95,10,1,11,0.04
2013-1-29,43.2,37.2,33.4,36.8,34.7,32.1,96,91,77,30.16,29.95,5,1,7,0.12
2013-1-30,53.9,49.0,38.1,53.2,48.3,36.5,98,97,94,30.10,29.46,12,2,18,0.01
2013-1-31,57.2,48.0,32.8,56.2,37.5,15.1,97,69,40,29.65,29.02,25,9,33,0.38
2013-2-1,34.9,30.3,22.9,20.4,13.8,8.4,60,50,36,30.11,29.65,17,4,26,0.00
2013-2-2,32.3,27.2,21.2,22.9,15.5,10.0,81,61,48,30.24,30.03,14,4,19,0.00
2013-2-3,36.1,28.1,21.8,22.8,20.0,17.6,88,72,51,30.03,29.70,7,1,9,0.00
2013-2-4,34.3,27.9,22.6,19.1,14.0,9.1,81,58,39,29.93,29.72,13,3,20,0.00
2013-2-5,29.6,27.8,26.6,24.7,21.2,10.6,87,77,50,29.97,29.87,4,1,6,0.00
2013-2-6,41.1,33.1,28.1,31.9,23.5,4.4,90,70,33,30.28,29.86,13,2,18,0.02
2013-2-7,35.1,29.2,22.4,22.9,12.4,4.9,68,50,35,30.48,30.27,10,2,14,0.00
2013-2-8,35.5,32.9,28.8,33.8,29.7,19.0,100,88,65,30.37,29.43,15,3,15,0.00
2013-2-9,30.1,24.7,18.0,26.1,21.5,13.2,95,87,76,30.20,29.52,0,0,0,0.00
2013-2-10,40.9,26.7,8.8,24.4,19.2,5.3,91,75,41,30.40,30.21,2,0,5,0.01
2013-2-11,46.2,36.0,21.0,45.4,34.8,18.3,98,95,89,30.32,29.60,13,1,15,0.44
2013-2-12,45.9,39.9,32.3,38.9,33.4,27.1,98,79,56,29.89,29.62,14,2,24,0.00
2013-2-13,45.8,35.4,27.0,30.3,27.9,23.9,92,75,49,29.88,29.62,7,1,14,0.00
2013-2-14,47.2,36.1,27.9,34.6,30.2,25.9,95,80,51,29.98,29.67,11,1,14,0.14
2013-2-15,50.0,38.2,29.9,41.5,34.9,28.3,97,88,68,29.99,29.89,10,1,13,0.00
2013-2-16,40.4,36.9,32.5,36.5,31.6,26.1,100,81,66,29.90,29.62,12,3,17,0.00
2013-2-17,32.4,26.5,19.3,26.8,12.7,4.5,88,58,37,29.77,29.44,23,6,34,0.00
2013-2-18,36.4,26.3,18.3,18.0,9.2,5.8,61,49,30,30.17,29.77,18,5,24,0.00
2013-2-19,48.1,38.1,25.0,44.0,33.3,16.2,96,83,60,30.17,29.58,10,1,16,0.26
2013-2-20,40.9,34.3,26.2,39.8,22.2,12.6,96,63,42,29.85,29.58,17,4,25,0.01
2013-2-21,38.2,29.1,24.7,20.5,16.6,14.4,72,60,45,30.19,29.83,18,5,25,0.00
2013-2-22,43.2,33.6,24.5,30.3,24.7,17.3,80,70,50,30.34,30.19,13,2,16,0.00
2013-2-23,40.8,37.8,35.9,37.1,34.6,29.9,96,88,77,30.27,29.76,8,2,14,0.19
2013-2-24,43.0,38.3,33.5,40.8,36.6,32.0,97,93,88,29.86,29.63,14,3,18,0.13
2013-2-25,46.6,36.3,28.6,35.3,31.8,26.6,94,84,60,30.21,29.86,9,1,15,0.02
2013-2-26,43.6,37.8,31.7,38.1,33.2,29.1,93,84,71,30.28,30.01,9,2,12,0.07
2013-2-27,44.7,42.7,37.6,43.7,41.6,35.6,97,96,92,30.01,29.51,21,4,25,1.66
2013-2-28,46.9,41.3,37.3,42.9,39.5,36.5,99,93,83,29.59,29.49,4,1,6,0.04
2013-3-1,49.3,41.9,35.2,38.4,33.7,29.8,94,74,53,29.67,29.50,16,2,18,0.00
2013-3-2,42.2,38.1,33.8,32.3,29.5,28.7,83,71,62,29.68,29.60,12,2,15,0.00
2013-3-3,42.3,35.6,31.4,29.1,26.9,25.4,82,71,54,29.63,29.56,10,2,15,0.00
2013-3-4,44.5,35.6,30.0,28.5,24.7,22.5,78,65,49,29.76,29.61,15,4,24,0.00
2013-3-5,50.6,39.4,31.3,36.7,29.8,23.4,84,69,48,30.00,29.76,14,3,21,0.00
2013-3-6,44.4,39.9,35.6,37.9,34.6,31.2,90,81,68,29.98,29.84,20,6,24,0.00
2013-3-7,41.9,37.5,33.6,33.8,31.6,29.7,93,79,65,29.94,29.82,22,7,30,0.01
2013-3-8,40.0,35.3,32.8,34.7,32.4,28.7,95,89,66,30.06,29.88,13,2,21,0.10
2013-3-9,56.7,42.9,32.3,35.0,27.3,19.0,88,58,23,30.30,30.05,13,3,20,0.43
2013-3-10,44.7,36.8,30.1,36.3,32.6,27.7,94,85,70,30.36,30.28,7,2,10,0.00
2013-3-11,49.8,43.1,38.4,44.2,40.0,35.7,93,89,81,30.30,30.10,6,1,6,0.00
2013-3-12,51.3,48.1,41.8,50.5,46.6,40.0,97,95,89,30.10,29.68,12,2,18,0.59
2013-3-13,54.5,44.4,37.5,47.8,34.0,29.7,97,68,40,29.79,29.71,14,3,24,0.01
2013-3-14,39.2,34.8,31.1,31.0,21.9,15.0,85,61,38,29.84,29.75,19,4,26,0.00
2013-3-15,43.6,35.6,28.6,32.0,21.7,13.6,73,57,44,29.89,29.66,19,5,28,0.00
2013-3-16,42.1,36.2,31.5,30.5,23.9,13.6,84,63,32,29.84,29.69,11,2,20,0.00
2013-3-17,41.8,34.4,28.7,30.6,17.4,9.0,85,53,29,30.26,29.84,17,2,21,0.00
2013-3-18,36.0,31.8,24.7,30.6,16.8,6.6,89,55,35,30.40,30.08,10,2,15,0.00
2013-3-19,44.0,37.3,33.4,41.2,35.3,30.6,95,92,84,30.08,29.55,15,4,17,0.75
2013-3-20,45.5,37.2,30.8,32.6,25.8,21.1,93,65,41,29.79,29.68,17,4,25,0.00
2013-3-21,42.7,35.9,31.4,30.1,26.9,23.7,84,70,54,29.79,29.57,10,2,17,0.00
2013-3-22,44.2,35.7,27.6,26.0,20.4,15.7,80,54,38,29.77,29.61,14,3,18,0.00
2013-3-23,49.5,39.4,31.2,26.9,23.1,18.7,75,54,30,29.83,29.66,23,4,31,0.00
2013-3-24,51.3,40.7,31.8,34.5,26.9,20.6,78,59,38,29.85,29.66,15,2,17,0.00
2013-3-25,47.3,39.9,34.9,35.0,31.3,27.1,91,72,50,29.72,29.39,15,3,18,0.03
2013-3-26,49.3,40.7,33.5,34.6,30.3,25.0,90,68,43,29.78,29.48,8,1,12,0.01
2013-3-27,55.0,43.4,30.7,35.4,27.4,22.1,77,56,30,29.85,29.74,13,3,19,0.00
2013-3-28,50.4,43.8,35.9,38.7,34.0,28.9,80,68,55,30.01,29.84,11,2,15,0.01
2013-3-29,60.4,48.2,37.9,39.1,34.3,30.7,84,60,38,30.04,29.96,17,3,23,0.00
2013-3-30,60.2,48.4,38.4,36.0,31.7,23.9,76,54,25,30.08,29.99,14,3,20,0.00
2013-3-31,54.0,43.6,32.0,44.8,36.9,28.9,95,78,54,30.09,29.61,8,2,12,0.13
2013-4-1,55.5,47.5,37.8,48.1,42.0,20.5,96,82,49,29.81,29.55,12,4,27,0.02
2013-4-2,46.5,38.5,30.5,23.5,18.0,11.8,74,46,25,29.98,29.81,18,4,28,0.00
2013-4-3,49.8,39.7,31.9,20.2,16.6,13.8,57,40,25,30.19,29.98,20,4,26,0.00
2013-4-4,50.5,39.8,29.7,36.4,25.3,15.6,82,57,31,30.32,30.07,14,4,20,0.00
2013-4-5,56.8,46.9,41.6,43.0,34.1,20.4,87,65,26,30.07,29.62,20,3,21,0.00
2013-4-6,51.9,41.9,35.5,31.5,20.7,7.8,75,46,18,30.30,29.88,13,4,22,0.00
2013-4-7,54.6,43.3,30.9,44.6,36.9,27.4,95,79,58,30.29,30.00,12,2,15,0.00
2013-4-8,65.0,52.9,43.1,47.6,44.3,40.9,96,75,46,30.04,29.94,11,2,14,0.00
2013-4-9,82.0,60.5,46.4,56.8,47.3,42.9,97,68,28,30.03,29.83,17,3,24,0.03
2013-4-10,61.1,52.2,46.8,52.2,47.6,44.9,94,85,71,29.97,29.81,11,2,16,0.19
2013-4-11,62.7,49.9,45.8,51.8,46.1,39.0,97,87,64,30.06,29.77,6,1,11,0.01
2013-4-12,46.7,43.4,40.5,40.8,37.1,30.8,97,80,55,30.06,29.68,16,4,20,0.70
2013-4-13,54.7,46.6,40.0,43.2,39.7,37.3,94,78,57,29.92,29.65,12,3,17,0.02
2013-4-14,59.5,50.4,42.3,44.5,36.2,27.2,89,61,36,30.18,29.90,16,3,22,0.00
2013-4-15,52.6,46.1,39.5,41.7,35.7,27.8,92,68,52,30.37,30.17,9,1,9,0.00
2013-4-16,58.3,49.5,39.0,50.8,45.3,37.4,97,86,70,30.37,30.10,9,2,19,0.00
2013-4-17,72.4,59.1,46.7,52.9,43.8,36.3,93,61,27,30.28,30.07,10,2,19,0.00
2013-4-18,60.8,50.1,41.3,48.0,41.3,37.6,90,74,45,30.36,30.11,9,2,12,0.00
2013-4-19,64.5,57.4,51.0,59.8,55.8,48.2,98,95,83,30.11,29.67,11,2,20,0.02
2013-4-20,58.6,52.6,45.9,58.0,44.4,31.3,98,76,40,30.20,29.61,16,4,18,0.48
2013-4-21,56.8,45.2,36.2,37.0,29.0,22.4,74,54,29,30.62,30.20,14,3,21,0.00
2013-4-22,54.4,45.3,36.0,40.8,35.5,32.2,87,70,47,30.66,30.50,14,3,18,0.00
2013-4-23,49.1,44.9,41.1,44.0,40.0,33.8,90,83,74,30.49,29.99,15,4,18,0.00
2013-4-24,65.0,51.2,44.5,50.0,45.4,41.1,96,81,52,29.99,29.86,13,3,18,0.00
2013-4-25,66.4,53.3,45.7,51.3,38.0,32.7,96,58,32,30.24,29.85,7,2,19,0.02
2013-4-26,61.2,51.0,39.6,46.4,39.5,31.1,89,66,42,30.36,30.24,7,1,9,0.00
2013-4-27,57.7,49.4,41.6,49.1,45.1,39.7,96,85,69,30.37,30.28,6,1,7,0.00
2013-4-28,61.9,51.2,38.7,48.7,42.9,36.4,97,76,40,30.31,30.21,5,1,9,0.00
2013-4-29,61.2,53.3,47.9,49.8,45.9,42.8,98,77,59,30.24,30.19,7,1,9,0.00
2013-4-30,64.9,54.9,44.9,44.9,39.4,33.0,82,58,32,30.32,30.20,6,1,7,0.00
2013-5-1,64.0,51.8,40.0,51.2,43.3,32.6,89,73,55,30.45,30.31,7,2,12,0.00
2013-5-2,67.9,55.4,41.2,49.8,45.1,38.6,96,71,43,30.42,30.30,6,1,11,0.00
2013-5-3,69.0,54.7,46.8,49.0,43.3,37.8,91,67,41,30.43,30.33,8,2,13,0.00
2013-5-4,61.8,51.3,44.1,48.8,44.1,40.2,92,77,56,30.33,30.24,7,2,11,0.00
2013-5-5,59.7,49.3,40.0,48.4,43.2,37.4,94,80,62,30.27,30.21,7,2,11,0.00
2013-5-6,61.4,52.1,43.2,50.8,46.3,40.1,93,81,65,30.25,30.13,6,1,9,0.00
2013-5-7,64.7,55.0,44.1,58.8,51.5,42.5,97,88,78,30.15,30.09,4,1,7,0.00
2013-5-8,64.9,58.8,55.4,62.0,57.2,54.3,100,94,87,30.11,30.00,8,1,12,0.25
2013-5-9,63.1,57.8,55.1,61.6,56.8,54.3,98,96,91,30.00,29.83,2,0,3,0.24
2013-5-10,74.9,61.8,51.5,61.5,55.8,50.4,100,82,54,29.94,29.88,7,1,14,0.00
2013-5-11,64.4,59.5,55.0,62.3,57.7,53.1,97,94,85,29.90,29.67,6,1,11,0.29
2013-5-12,69.2,61.1,53.9,60.8,51.1,30.7,98,74,33,29.82,29.58,16,1,23,0.01
2013-5-13,59.5,52.4,46.0,39.6,34.7,31.6,64,51,36,30.02,29.83,18,3,23,0.00
2013-5-14,61.4,50.6,41.2,43.2,36.8,32.5,82,60,35,30.05,29.96,15,2,19,0.00
2013-5-15,61.5,52.0,40.6,54.0,47.3,38.2,96,84,58,30.05,29.66,7,1,9,0.03
2013-5-16,75.2,61.6,49.2,58.5,52.1,47.5,97,74,40,29.76,29.65,11,1,18,0.00
2013-5-17,71.8,61.0,51.6,50.5,47.4,44.3,87,63,40,30.18,29.76,10,1,14,0.00
2013-5-18,69.9,58.2,47.6,54.8,50.9,45.4,96,78,54,30.28,30.18,7,1,13,0.00
2013-5-19,60.8,55.6,49.8,55.8,52.6,47.6,97,90,77,30.33,30.17,2,0,5,0.32
2013-5-20,73.0,63.7,56.4,66.4,61.1,55.4,98,92,76,30.17,29.92,12,1,14,0.09
2013-5-21,80.5,68.0,59.9,71.6,64.0,57.9,97,88,71,29.94,29.80,7,1,15,0.00
2013-5-22,67.8,60.6,54.9,63.1,58.1,52.9,95,92,82,29.92,29.84,5,0,6,0.01
2013-5-23,70.5,64.4,60.3,66.4,62.6,58.9,98,94,86,29.90,29.78,7,1,12,0.63
2013-5-24,69.0,61.1,49.2,65.9,59.0,47.8,99,93,82,29.79,29.63,9,1,17,0.21
2013-5-25,52.7,48.8,45.3,49.8,46.5,41.8,97,92,83,29.81,29.72,12,2,18,0.13
2013-5-26,61.3,53.2,45.4,46.9,43.7,41.7,88,71,52,30.12,29.78,13,2,21,0.00
2013-5-27,70.9,58.5,45.5,53.8,46.2,41.1,93,66,38,30.16,30.06,13,1,17,0.00
2013-5-28,70.7,58.2,47.4,57.5,51.7,44.8,95,80,50,30.20,30.13,6,0,10,0.02
2013-5-29,69.0,62.6,57.6,64.9,60.3,56.5,97,92,83,30.13,29.97,4,0,8,0.13
2013-5-30,85.1,73.5,61.9,71.3,65.7,59.8,96,78,61,30.07,30.00,12,1,16,0.00
2013-5-31,86.0,74.1,64.1,71.0,65.9,61.4,95,76,58,30.07,29.95,7,0,11,0.00
2013-6-1,85.0,72.3,62.6,71.7,65.9,59.9,95,81,62,29.98,29.89,7,1,12,0.00
2013-6-2,80.2,70.1,63.8,70.0,64.9,61.3,95,84,69,29.90,29.77,7,1,15,0.00
2013-6-3,70.2,66.3,63.1,69.1,64.5,61.3,97,94,90,29.81,29.75,10,1,11,0.15
2013-6-4,73.0,64.2,54.5,62.0,49.9,43.0,93,61,43,30.04,29.80,10,2,19,0.00
2013-6-5,72.2,62.6,53.5,57.2,51.3,47.0,89,68,42,30.17,30.04,4,0,8,0.00
2013-6-6,71.7,61.5,54.4,63.4,57.0,51.3,95,85,71,30.14,30.02,5,0,7,0.01
2013-6-7,60.4,59.3,57.8,59.2,58.0,55.6,98,96,91,30.02,29.65,9,1,13,3.21
2013-6-8,73.3,64.9,56.9,65.9,61.4,56.3,99,89,74,29.98,29.50,10,1,18,1.04
2013-6-9,77.2,68.6,59.5,64.6,60.9,57.8,95,78,58,30.14,29.98,15,1,16,0.00
2013-6-10,70.1,63.5,59.2,63.4,60.1,57.2,97,89,74,30.14,29.88,9,1,15,1.88
2013-6-11,78.7,67.4,60.0,71.4,65.3,59.2,98,93,72,29.88,29.54,10,1,15,0.86
2013-6-12,73.8,66.9,60.1,63.0,57.8,54.0,93,73,58,29.80,29.58,12,2,17,0.00
2013-6-13,61.6,58.2,55.0,58.6,55.7,52.2,96,91,81,29.79,29.49,9,1,15,0.70
2013-6-14,67.8,59.6,53.6,58.4,55.4,52.8,100,87,69,29.78,29.48,12,2,16,0.71
2013-6-15,80.1,67.3,58.1,62.2,56.9,51.8,94,72,40,29.92,29.77,12,1,14,0.00
2013-6-16,76.3,66.3,55.9,65.1,60.6,53.6,96,83,61,29.93,29.72,7,1,14,0.00
2013-6-17,83.8,71.4,62.2,70.2,65.1,60.5,97,81,60,29.89,29.78,13,1,14,0.01
2013-6-18,78.4,67.4,61.0,68.6,63.5,59.4,96,88,68,29.88,29.80,4,0,7,0.41
2013-6-19,77.8,66.3,57.1,62.0,57.9,51.6,96,77,44,30.11,29.83,9,1,12,0.00
2013-6-20,77.8,65.6,54.6,61.5,56.6,50.3,92,74,50,30.24,30.11,6,0,10,0.00
2013-6-21,79.9,67.9,59.2,65.4,59.4,55.8,93,75,52,30.25,30.20,8,1,13,0.00
2013-6-22,80.6,69.2,61.2,65.5,61.4,57.7,95,78,52,30.23,30.12,8,0,11,0.00
2013-6-23,83.9,72.0,62.4,70.9,66.4,60.5,96,84,61,30.16,30.03,11,1,18,0.00
2013-6-24,87.4,78.2,70.9,76.5,71.5,66.2,96,81,65,30.04,29.88,12,1,15,0.00
2013-6-25,87.8,77.1,68.4,73.5,69.6,65.5,93,78,59,29.93,29.72,10,1,16,0.00
2013-6-26,84.2,76.0,69.8,74.5,70.3,67.1,93,83,69,29.79,29.71,11,1,17,0.02
2013-6-27,75.0,70.5,68.0,71.8,68.4,66.9,97,93,85,29.79,29.64,3,0,7,0.32
2013-6-28,79.1,72.6,67.6,74.7,70.4,66.7,98,93,82,29.64,29.47,4,1,10,0.04
2013-6-29,79.9,73.3,69.9,73.3,70.2,68.7,97,90,78,29.69,29.46,9,1,13,0.01
2013-6-30,74.8,72.1,69.5,72.0,70.0,67.8,97,93,84,29.91,29.69,3,0,9,0.27
2013-7-1,76.9,72.5,70.4,75.3,71.5,69.5,98,97,91,30.05,29.91,3,0,6,0.40
2013-7-2,78.4,74.1,71.8,75.0,72.3,70.8,97,94,88,30.16,30.05,5,1,7,0.01
2013-7-3,83.5,75.7,71.3,76.2,72.5,69.8,96,90,74,30.21,30.15,9,2,14,0.01
2013-7-4,87.3,78.0,73.4,78.1,74.2,72.1,97,89,70,30.21,30.12,12,1,14,0.00
2013-7-5,88.9,79.9,73.9,78.1,74.4,71.7,95,84,67,30.16,30.05,10,1,14,0.00
2013-7-6,89.6,81.0,75.0,79.2,74.6,72.2,92,82,68,30.08,29.96,13,2,16,0.00
2013-7-7,92.9,81.3,74.3,79.3,75.0,72.2,96,82,55,30.00,29.87,10,1,14,0.00
2013-7-8,87.0,79.0,74.5,75.8,72.2,68.7,93,80,63,29.99,29.89,10,2,16,0.00
2013-7-9,82.6,75.0,71.0,74.7,71.7,69.0,96,90,75,30.05,29.97,3,0,5,0.01
2013-7-10,84.1,76.3,72.1,77.2,73.6,70.9,98,92,78,30.00,29.77,10,0,12,0.20
2013-7-11,77.5,75.4,71.8,74.3,73.0,70.0,95,92,89,29.87,29.76,8,0,14,0.50
2013-7-12,81.1,73.6,69.6,72.0,68.1,63.6,94,83,72,30.11,29.86,5,1,11,0.00
2013-7-13,74.9,71.7,68.4,73.1,69.8,65.6,97,94,86,30.26,30.11,4,0,9,0.19
2013-7-14,84.4,78.0,71.7,77.6,74.2,70.8,98,89,74,30.28,30.17,8,1,11,0.00
2013-7-15,93.3,81.9,72.8,79.6,74.6,71.0,97,80,54,30.18,30.07,6,0,12,0.01
2013-7-16,93.8,82.9,74.3,76.8,73.3,69.5,88,74,51,30.11,30.06,9,1,11,0.00
2013-7-17,88.3,79.4,72.9,77.1,73.1,70.8,95,82,62,30.14,30.02,4,0,7,0.00
2013-7-18,93.9,83.5,75.7,80.0,75.7,72.6,92,78,60,30.02,29.91,7,0,10,0.00
2013-7-19,94.4,82.6,76.0,80.4,76.5,74.2,96,83,59,29.92,29.74,11,1,15,0.00
2013-7-20,89.7,82.3,76.5,77.8,75.4,69.9,91,80,64,29.79,29.65,13,2,19,0.00
2013-7-21,81.7,74.6,70.3,72.0,68.0,64.9,92,80,60,29.94,29.79,3,0,5,0.09
2013-7-22,78.4,72.9,69.8,72.0,69.9,67.7,96,91,75,29.94,29.80,5,0,7,0.00
2013-7-23,84.1,75.3,71.3,77.9,72.9,70.4,98,93,75,29.80,29.52,10,0,15,1.14
2013-7-24,84.2,76.6,70.8,76.7,71.3,61.9,97,84,71,29.86,29.55,7,0,9,0.01
2013-7-25,70.8,62.7,59.6,62.4,59.3,56.9,97,89,73,30.01,29.86,7,1,13,2.85
2013-7-26,70.5,65.4,59.8,68.3,63.9,59.0,98,95,88,30.01,29.90,7,1,14,0.18
2013-7-27,80.6,72.6,67.0,71.1,68.3,65.8,97,87,65,30.03,29.94,7,1,11,0.00
2013-7-28,82.3,73.3,67.9,73.0,68.9,66.4,97,87,67,29.97,29.91,6,0,11,0.00
2013-7-29,83.3,75.0,70.1,76.8,71.7,66.9,97,90,79,30.02,29.92,4,0,7,0.00
2013-7-30,81.8,72.1,63.8,67.1,63.2,58.2,89,74,54,30.08,30.01,6,1,12,0.00
2013-7-31,80.3,71.3,62.7,67.6,63.3,59.1,90,77,58,30.10,30.01,6,1,11,0.00
2013-8-1,80.9,70.0,65.6,71.0,65.9,63.8,97,87,68,30.02,29.82,4,0,7,0.03
2013-8-2,83.2,74.1,67.9,71.5,68.1,64.5,97,83,61,29.85,29.74,9,1,15,0.30
2013-8-3,73.9,71.3,66.7,68.8,66.3,62.7,92,84,77,29.85,29.78,12,1,16,0.03
2013-8-4,81.6,69.5,60.6,66.5,61.8,57.0,92,78,52,29.87,29.76,9,1,13,0.07
2013-8-5,77.3,66.6,57.1,60.1,55.9,51.2,94,71,41,30.00,29.87,7,1,13,0.00
2013-8-6,78.7,67.9,56.4,64.7,59.3,53.3,92,75,48,30.11,30.00,3,0,5,0.00
2013-8-7,78.4,68.9,59.6,67.4,63.1,57.5,97,82,63,30.14,30.08,4,0,6,0.00
2013-8-8,78.0,73.1,70.2,72.9,70.0,66.2,96,90,82,30.08,29.99,6,0,10,0.12
2013-8-9,76.0,73.7,72.5,74.6,72.4,71.0,97,96,94,30.01,29.76,6,0,9,0.42
2013-8-10,80.3,73.9,66.6,72.9,68.0,59.5,97,83,64,30.00,29.78,9,1,15,0.00
2013-8-11,78.6,68.8,58.4,64.4,57.9,51.9,88,69,47,30.06,29.98,11,1,12,0.00
2013-8-12,76.7,70.4,65.4,71.0,66.1,62.8,97,87,66,30.01,29.89,4,0,6,0.20
2013-8-13,71.0,68.1,65.1,69.7,66.7,63.1,97,95,92,29.90,29.66,3,0,5,0.18
2013-8-14,75.5,67.6,60.9,67.5,58.7,55.0,97,75,52,29.95,29.66,14,1,16,0.00
2013-8-15,76.9,66.4,56.2,61.3,57.0,53.0,93,73,45,30.10,29.96,10,1,12,0.00
2013-8-16,79.4,69.4,59.6,64.7,60.1,53.6,96,74,43,30.17,30.08,5,0,10,0.00
2013-8-17,81.1,69.9,59.7,67.2,62.3,57.4,93,78,57,30.24,30.17,5,0,10,0.00
2013-8-18,75.3,67.1,62.4,66.2,62.6,60.5,95,86,68,30.23,30.08,2,0,3,0.00
2013-8-19,80.9,69.9,60.5,69.2,64.2,58.8,94,83,63,30.08,29.96,7,0,12,0.00
2013-8-20,85.0,73.3,63.6,70.7,65.5,61.8,96,78,53,30.08,29.98,6,1,13,0.00
2013-8-21,84.8,74.6,64.7,72.2,66.8,62.9,97,78,56,30.12,30.02,4,0,11,0.00
2013-8-22,78.3,72.2,69.1,73.6,70.2,67.3,96,93,82,30.02,29.82,14,0,16,0.28
2013-8-23,82.7,72.6,64.6,69.0,65.9,60.6,97,81,49,30.06,29.80,6,0,15,0.00
2013-8-24,79.6,67.2,58.8,61.6,58.2,53.7,91,75,45,30.31,30.07,6,1,10,0.00
2013-8-25,78.9,68.1,57.3,67.0,60.8,55.5,97,79,51,30.33,30.18,7,1,11,0.00
2013-8-26,77.3,71.8,69.6,69.6,65.6,61.8,95,81,70,30.19,29.87,15,2,16,0.40
2013-8-27,80.8,72.3,68.9,73.8,69.9,67.1,97,92,77,29.87,29.77,6,0,9,1.12
2013-8-28,78.8,72.2,67.6,73.0,69.4,66.1,97,91,79,29.87,29.82,3,0,5,0.00
2013-8-29,76.6,70.0,64.7,69.4,66.3,61.1,96,88,76,30.01,29.87,7,0,12,0.00
2013-8-30,77.2,68.4,60.2,71.0,65.3,58.2,95,90,79,29.99,29.82,9,1,13,0.00
2013-8-31,79.6,74.0,69.8,73.6,71.4,68.3,97,92,80,29.83,29.77,6,1,14,0.00
2013-9-1,81.0,75.1,73.0,75.6,72.8,71.2,96,92,83,29.84,29.78,7,0,8,0.00
2013-9-2,75.6,73.9,72.6,74.7,72.8,71.7,98,96,94,29.81,29.67,2,0,5,0.18
2013-9-3,73.7,70.9,63.6,73.1,69.9,62.4,98,97,95,29.81,29.66,3,0,4,0.36
2013-9-4,77.8,67.9,59.2,65.7,61.8,58.2,98,82,58,29.91,29.80,14,1,19,0.00
2013-9-5,76.5,66.9,57.5,65.7,59.1,50.7,96,78,53,30.09,29.85,7,1,10,0.00
2013-9-6,71.9,60.5,52.1,52.7,49.3,44.8,87,68,41,30.20,30.09,7,1,12,0.00
2013-9-7,74.1,63.7,51.0,62.5,54.7,48.5,95,75,45,30.08,29.86,13,1,18,0.00
2013-9-8,79.4,69.7,57.7,67.4,59.5,46.0,87,71,47,30.03,29.75,10,1,15,0.00
2013-9-9,69.5,60.8,49.8,58.0,49.3,44.5,86,67,42,30.21,30.03,5,1,10,0.00
2013-9-10,74.1,69.8,64.7,70.7,66.0,58.0,95,88,79,30.14,29.99,7,1,13,0.00
2013-9-11,88.3,76.9,70.8,78.2,72.6,69.3,97,87,68,30.07,29.96,10,1,12,0.00
2013-9-12,80.5,74.0,69.8,74.3,70.9,68.4,97,90,81,29.97,29.66,14,1,14,0.33
2013-9-13,78.8,70.7,62.2,71.5,66.4,56.8,97,87,70,29.73,29.57,6,0,11,0.06
2013-9-14,68.6,61.1,54.3,57.9,54.6,50.9,93,80,64,30.04,29.74,6,1,11,0.00
2013-9-15,68.8,59.1,50.6,56.0,52.2,47.8,92,79,57,30.15,30.04,6,1,13,0.00
2013-9-16,68.0,61.2,54.6,59.5,56.7,47.5,95,86,69,30.18,29.99,6,0,11,0.01
2013-9-17,63.9,54.3,44.7,47.7,44.9,39.2,88,72,47,30.37,30.19,3,0,17,0.00
2013-9-18,69.2,57.0,46.1,53.4,48.0,43.5,94,74,43,30.31,30.14,10,1,11,0.00
2013-9-19,73.1,62.1,53.2,59.4,54.6,50.1,95,78,46,30.14,30.03,11,1,12,0.00
2013-9-20,75.5,63.6,53.8,65.5,58.9,52.3,98,85,69,30.06,29.98,5,0,7,0.00
2013-9-21,74.0,66.1,56.8,68.6,63.3,55.3,98,91,80,30.00,29.69,6,0,6,0.00
2013-9-22,71.0,65.4,53.7,68.5,59.5,46.3,97,82,63,29.82,29.60,14,1,14,0.35
2013-9-23,64.6,55.1,47.1,50.7,47.3,43.8,90,76,55,29.98,29.81,6,1,12,0.00
2013-9-24,68.8,55.1,44.2,53.1,47.0,41.7,93,76,49,29.99,29.79,7,1,13,0.00
2013-9-25,71.0,59.5,49.5,58.3,51.8,46.2,92,77,49,29.92,29.83,11,1,11,0.00
2013-9-26,65.3,59.8,52.5,55.9,53.4,50.2,92,80,63,30.07,29.92,5,0,7,0.00
2013-9-27,65.6,58.9,51.9,57.5,54.3,49.8,95,85,71,30.22,30.06,5,0,10,0.00
2013-9-28,74.5,60.8,51.8,61.3,55.0,50.1,97,83,55,30.27,30.20,4,0,7,0.00
2013-9-29,69.2,58.2,51.1,57.9,53.8,49.7,97,86,63,30.20,30.06,4,0,5,0.00
2013-9-30,70.4,59.7,52.9,58.0,54.1,51.2,95,83,55,30.06,29.93,7,0,8,0.00
2013-10-1,76.7,63.4,52.3,64.0,57.6,50.6,97,83,52,29.93,29.83,10,1,14,0.00
2013-10-2,77.2,66.6,57.3,67.3,61.3,55.3,96,84,64,29.95,29.83,8,1,14,0.00
2013-10-3,77.7,65.0,55.9,62.5,56.8,48.0,93,77,36,30.06,29.95,4,1,8,0.00
2013-10-4,75.7,64.8,57.6,68.2,61.1,55.9,97,88,75,30.04,29.94,3,0,5,0.00
2013-10-5,70.6,63.3,60.4,64.4,60.4,58.5,95,90,78,30.07,30.00,3,0,5,0.00
2013-10-6,63.7,62.0,60.3,61.8,60.6,58.9,97,95,90,30.12,30.05,6,0,13,0.08
2013-10-7,76.0,69.1,62.5,70.7,66.8,59.7,98,93,82,30.04,29.81,10,1,12,0.02
2013-10-8,67.4,58.2,52.3,60.0,49.3,46.0,91,73,49,30.30,29.88,2,0,13,0.00
2013-10-9,64.5,55.7,49.2,51.5,47.2,42.9,84,74,58,30.38,30.28,6,1,10,0.00
2013-10-10,65.0,58.0,51.4,59.0,53.2,47.4,89,84,77,30.28,30.07,6,1,9,0.00
2013-10-11,69.5,62.7,57.7,62.1,56.9,45.7,92,82,60,30.07,30.00,6,1,12,0.00
2013-10-12,72.4,60.8,54.9,61.3,52.6,43.3,86,75,52,30.30,30.06,6,1,14,0.00
2013-10-13,63.0,56.0,50.5,53.6,50.8,46.5,92,83,69,30.36,30.26,4,0,10,0.00
2013-10-14,61.9,52.2,43.8,52.2,47.5,42.2,96,85,68,30.35,30.22,4,0,7,0.00
2013-10-15,67.0,55.6,46.8,54.8,49.4,45.0,97,81,50,30.23,30.11,3,0,5,0.00
2013-10-16,67.5,58.3,51.1,59.7,54.5,48.7,95,88,74,30.12,29.88,4,0,6,0.00
2013-10-17,68.6,63.0,57.8,63.3,60.7,55.8,98,92,81,29.88,29.69,5,1,10,0.00
2013-10-18,68.1,62.9,53.6,63.6,54.2,45.7,96,74,52,29.90,29.61,12,2,16,0.00
2013-10-19,64.5,55.8,45.6,56.1,48.5,42.3,93,77,53,29.95,29.71,4,0,7,0.01
2013-10-20,63.6,56.7,47.3,59.0,45.8,38.0,94,70,39,30.01,29.67,10,1,16,0.01
2013-10-21,64.9,54.6,43.7,51.6,45.1,39.5,92,72,45,30.10,29.96,10,1,11,0.00
2013-10-22,67.8,60.4,50.9,56.1,52.6,45.6,90,76,57,29.96,29.67,8,1,15,0.00
2013-10-23,50.8,46.8,42.5,45.5,41.2,38.0,89,81,64,29.76,29.57,6,0,8,0.00
2013-10-24,56.0,47.0,39.9,40.0,34.4,30.4,86,64,39,29.90,29.66,13,2,20,0.00
2013-10-25,52.3,44.2,37.2,35.5,32.3,30.9,81,64,44,30.16,29.90,11,1,17,0.00
2013-10-26,55.4,46.8,35.2,43.0,36.7,32.1,92,70,45,30.15,29.86,18,3,26,0.00
2013-10-27,58.6,51.1,41.4,41.7,37.1,32.1,80,60,41,30.05,29.79,15,2,25,0.01
2013-10-28,60.3,47.6,35.3,43.4,37.5,32.1,90,69,48,30.29,30.05,21,2,25,0.00
2013-10-29,55.4,45.9,39.5,36.6,31.7,27.6,73,58,41,30.38,30.29,5,1,11,0.00
2013-10-30,59.5,49.2,39.2,50.5,42.5,31.3,90,78,69,30.32,30.15,5,0,11,0.00
2013-10-31,64.3,55.6,45.3,61.8,53.4,43.3,97,92,87,30.20,29.79,9,1,11,0.08
2013-11-1,66.6,63.3,60.7,63.3,60.3,57.5,96,90,83,29.79,29.50,13,3,24,0.14
2013-11-2,64.3,57.8,52.0,58.0,51.1,44.9,90,79,61,29.70,29.57,5,1,15,0.00
2013-11-3,53.2,46.7,36.0,47.9,35.8,22.5,85,66,48,30.38,29.70,16,2,16,0.00
2013-11-4,47.8,38.3,32.3,28.0,22.0,18.8,75,53,32,30.65,30.38,7,1,13,0.00
2013-11-5,52.4,43.2,34.4,40.7,35.7,27.9,85,75,61,30.65,30.47,4,1,6,0.00
2013-11-6,61.2,52.0,40.9,55.1,47.4,38.3,96,85,66,30.47,30.05,6,1,11,0.00
2013-11-7,62.7,55.5,41.9,61.1,53.4,37.1,97,92,82,30.05,29.67,12,2,19,0.33
2013-11-8,53.0,43.2,35.0,37.0,33.1,28.2,92,69,45,30.12,29.83,14,2,19,0.00
2013-11-9,50.9,42.2,31.5,40.9,31.9,27.6,88,68,49,30.23,29.99,11,2,16,0.00
2013-11-10,59.3,51.3,46.3,44.6,40.8,35.0,76,67,53,29.99,29.71,14,3,21,0.00
2013-11-11,53.9,48.6,40.2,42.8,35.3,30.1,71,60,46,30.11,29.91,13,4,24,0.00
2013-11-12,53.2,39.3,30.7,40.8,29.1,18.9,90,67,56,30.17,29.85,14,4,19,0.01
2013-11-13,41.2,32.3,27.4,21.8,18.4,14.5,73,57,36,30.26,30.16,12,2,17,0.00
2013-11-14,50.5,47.7,32.4,34.5,30.9,22.0,70,52,44,30.19,30.07,14,4,21,0.00
2013-11-15,56.9,48.9,40.6,45.2,38.9,32.2,91,69,46,30.20,30.12,9,2,15,0.00
2013-11-16,57.9,49.0,41.9,48.8,43.1,37.4,93,80,62,30.28,30.18,9,1,11,0.00
2013-11-17,58.7,53.1,40.9,57.8,51.9,39.1,99,95,91,30.26,29.81,5,1,7,0.17
2013-11-18,63.0,58.8,51.6,60.6,48.9,33.4,98,72,44,29.80,29.55,17,4,25,0.36
2013-11-19,51.5,43.6,34.8,36.8,27.5,22.6,62,53,42,30.25,29.66,18,4,21,0.00
2013-11-20,47.0,35.6,29.2,22.8,19.6,13.9,68,54,28,30.58,30.25,12,2,18,0.00
2013-11-21,49.5,38.7,27.3,39.3,28.6,18.8,83,68,44,30.60,30.36,5,1,6,0.00
2013-11-22,53.5,50.2,44.2,52.4,47.9,38.8,96,92,81,30.35,29.81,12,1,17,0.07
2013-11-23,51.7,44.3,33.0,50.6,30.5,19.4,96,61,33,29.91,29.80,18,4,21,0.00
2013-11-24,32.9,27.3,24.1,22.5,8.7,3.0,70,46,32,30.24,29.84,24,5,30,0.00
2013-11-25,38.5,30.0,21.2,27.2,15.5,8.4,68,55,38,30.39,30.24,15,4,23,0.00
2013-11-26,50.7,41.1,37.6,49.9,31.0,20.7,97,69,49,30.30,29.90,20,3,26,0.38
2013-11-27,60.6,51.4,38.8,60.0,50.0,33.0,98,95,78,29.90,29.18,19,5,26,1.50
2013-11-28,39.7,33.6,26.3,33.6,21.5,14.1,80,62,40,30.44,29.55,19,3,23,0.00
2013-11-29,41.0,31.8,26.8,23.3,20.1,16.3,78,62,46,30.69,30.43,6,1,11,0.00
2013-11-30,41.9,30.0,21.2,33.3,20.8,12.2,86,69,50,30.74,30.37,7,1,9,0.00
2013-12-1,49.0,45.2,41.6,47.9,42.3,33.3,96,90,71,30.37,29.97,11,1,11,0.06
2013-12-2,46.6,40.0,35.8,42.7,38.2,34.2,97,93,81,29.97,29.86,5,0,7,0.00
2013-12-3,54.2,41.1,33.9,42.8,36.2,32.9,98,84,53,29.94,29.82,10,2,11,0.00
2013-12-4,50.3,39.3,31.5,39.3,34.4,29.0,94,83,60,30.13,29.94,6,1,11,0.00
2013-12-5,55.6,50.9,39.3,54.4,49.7,37.5,97,96,93,30.14,29.92,6,1,6,0.00
2013-12-6,57.5,48.6,39.6,56.9,47.4,38.3,98,96,93,30.09,29.85,10,2,16,0.50
2013-12-7,42.7,37.2,31.4,38.3,31.3,22.7,96,80,61,30.45,30.02,13,2,22,0.20
2013-12-8,34.0,31.4,26.6,26.4,22.3,20.2,82,69,57,30.56,30.39,10,1,10,0.00
2013-12-9,41.2,36.1,29.6,40.4,34.7,26.5,97,95,81,30.40,29.87,11,3,15,0.19
2013-12-10,36.1,33.3,27.6,35.1,32.1,25.6,97,96,92,30.02,29.76,6,1,14,0.00
2013-12-11,36.0,30.5,26.6,25.8,22.7,20.2,92,73,61,30.24,30.02,12,3,19,0.05
2013-12-12,30.6,24.9,18.3,20.8,14.7,10.2,84,66,44,30.27,30.08,11,2,16,0.00
2013-12-13,35.4,27.9,21.8,20.5,15.7,10.2,75,60,49,30.31,30.03,15,4,24,0.00
2013-12-14,36.5,23.6,19.1,35.7,17.8,13.0,97,79,59,30.51,29.94,14,3,16,0.00
2013-12-15,38.0,34.9,31.7,37.1,32.6,25.4,100,91,76,29.94,29.36,14,3,18,1.06
2013-12-16,35.6,29.6,19.8,26.4,18.0,12.7,77,62,44,30.19,29.74,14,3,19,0.00
2013-12-17,26.3,21.5,15.5,24.3,17.8,11.5,92,85,74,30.21,29.86,15,2,17,0.00
2013-12-18,40.6,29.3,20.9,27.1,22.7,17.8,95,77,57,30.10,29.83,13,3,17,0.01
2013-12-19,47.0,37.6,28.6,36.9,30.1,22.4,85,74,56,30.12,29.96,17,3,29,0.16
2013-12-20,52.1,42.4,33.9,45.6,37.5,31.4,95,83,62,30.08,29.93,13,2,18,0.02
2013-12-21,56.0,50.8,46.9,51.8,48.3,45.4,97,91,80,29.97,29.87,13,2,17,0.00
2013-12-22,61.3,56.4,53.2,57.0,54.5,51.8,98,94,84,29.95,29.80,16,4,25,0.01
2013-12-23,58.4,49.5,40.5,56.1,48.1,36.3,97,95,85,30.05,29.86,13,2,17,0.71
2013-12-24,41.5,36.3,30.2,36.7,25.8,16.6,86,66,46,30.22,30.00,15,3,19,0.00
2013-12-25,30.8,25.5,20.1,19.8,11.6,8.2,75,56,39,30.49,30.22,12,2,19,0.00
2013-12-26,38.2,31.7,26.9,32.6,25.5,19.1,84,77,67,30.41,30.07,7,1,14,0.00
2013-12-27,40.8,31.7,24.1,26.7,24.1,21.7,93,74,51,30.28,30.19,13,2,16,0.00
2013-12-28,50.0,40.6,29.2,38.8,32.5,23.6,93,74,46,30.23,30.00,20,3,26,0.00
2013-12-29,47.3,42.2,37.8,46.5,39.9,34.7,97,92,78,30.02,29.30,12,2,18,1.31
2013-12-30,44.8,35.5,21.3,41.1,28.7,10.2,97,77,54,30.14,29.55,11,2,20,0.00
2013-12-31,29.5,24.2,17.2,22.5,14.2,8.0,75,66,45,30.19,30.02,11,2,16,0.00
2014-1-1,33.8,28.0,22.3,20.3,15.6,12.5,68,60,43,30.36,30.19,12,2,14,0.00
2014-1-2,29.4,24.5,12.5,24.4,20.7,9.6,92,85,68,30.27,29.65,11,4,16,0.00